Regional Weather Roundup
Issued by NWS

Home | Current Version | Previous Version | Text Only | Print | Product List | Glossary On
Versions: 1 2 3 4 5 6 7 8 9 10 11 12 13 14 15 16 17 18 19 20 21 22 23 24 25 26 27 28 29 30 31 32 33 34 35 36 37 38 39 40 41 42 43 44 45 46 47 48 49 50
000
ASUS43 KTOP 011459
RWRKS

WEATHER ROUNDUP FOR KANSAS
NATIONAL WEATHER SERVICE GOODLAND KS
1000 AM CDT WED JUL 01 2015

NOTE:  "FAIR" INDICATES FEW OR NO CLOUDS BELOW 12,000 FEET WITH NO
SIGNIFICANT WEATHER AND/OR OBSTRUCTIONS TO VISIBILITY.

KSZ001>006-013>018-027>032-041>047-011600-
NORTHWEST KANSAS

CITY           SKY/WX    TMP DP  RH WIND       PRES   REMARKS
GOODLAND       SUNNY     81  58  45 N21       29.98R
HAYS           CLOUDY    82  55  39 NW14      29.80S
HILL CITY      PTSUNNY   83  62  49 NW16      29.85R
RUSSELL        CLOUDY    84  56  38 NW14      29.78R
$$

KSZ061>065-074>080-084>089-011600-
SOUTHWEST KANSAS

CITY           SKY/WX    TMP DP  RH WIND       PRES   REMARKS
DODGE CITY     MOSUNNY   83  55  38 W21G26    29.88S
ELKHART          N/A     84  51  31 NW12        N/A
GARDEN CITY    MOSUNNY   82  56  40 NW9       29.91S
GREAT BEND     PTSUNNY   82  57  42 W15G24    29.81R
LIBERAL        SUNNY     82  57  42 W15G21    29.95S
PRATT          SUNNY     84  55  37 W22G28    29.84F
$$

KSZ066>073-081>083-090>101-011600-
SOUTHEAST KANSAS

CITY           SKY/WX    TMP DP  RH WIND       PRES   REMARKS
CHANUTE        CLOUDY    80  73  79 SE8       29.88F
COFFEYVILLE    PTSUNNY   85  72  65 SW9       29.88S
HUTCHINSON     MOSUNNY   88  60  38 SW16G22   29.80F
MEDICINE LODGE   N/A     85  62  46 SW14      29.84F
PARSONS        CLOUDY    82  73  74 VRB3      29.90S
WICHITA INTL   PTSUNNY   86  63  45 SW20G28   29.82F
WICHITA JABRA  MOSUNNY   85  65  51 SW18      29.82F
WINFIELD       MOSUNNY   88  67  49 SW16G25   29.87F
$$

KSZ007>012-019>026-033>040-048>060-102>105-011600-
NORTHEAST KANSAS

CITY           SKY/WX    TMP DP  RH WIND       PRES   REMARKS
CONCORDIA      SUNNY     83  65  54 SE9       29.78S
EMPORIA        CLOUDY    80  66  62 S9        29.83F
LAWRENCE       PTSUNNY   75  68  78 SE14      29.84S
MANHATTAN      MOSUNNY   81  69  67 S6        29.79S
OLATHE IND     PTSUNNY   74  69  85 SE14      29.86F
OLATHE EXE     PTSUNNY   73  69  87 S16G22    29.86S
SALINA         CLOUDY    82  63  52 S10       29.79R
TOPEKA BILLARD MOSUNNY   76  69  79 SE15      29.82S
TOPEKA FORBES  MOSUNNY   78  68  71 S16       29.81F
$$


USA.gov is the U.S. government's official web portal to all federal, state and local government web resources and services.